GSLV R/B (43865 NORAD) Tracking and Keplerian Element Data

This shows tracking and keplerian element data for the satellite.

Feedback or suggestion? Click here.




ElementValue
Catalog43865
NameGSLV R/B
Epoch Orbit61
Epoch Day17.27149172
Epoch Year2019
RAAN182.5459
Inclination19.4596
Eccentricity0.7466543
Argument of Perigee197.3602
Mean Anonmoly106.7337
Mean Motion2.09739667
Decay Rate0.0001893
L11 43865U 18105B 19017.27149172 .00018930 -95315-6 29709-3 0 9993
L22 43865 19.4596 182.5459 7466543 197.3602 106.7337 2.09739667 612



Live tracking and technical data element details for GSLV R/B (NORAD 43865). GSLV R/B can be tracked NOW for your location showing map with azimuth and elevation plus other details from your city location.







IsCatalogInMostPopularTable: catalog: 43865, numindb: 398
Update: records affected: 1



GetName: 43865 GSLV R/B

Hit Count: updated at: Thu, 21 May 2026 12:03:40 GMT